Lid_Strength_Index
8 9 9 9 9 9 9 10 9 9 9 9 9 10 10 10 10 10 9 2 3 3 3 2 2 2 2 2 2 2 2 2 2 1 1 1 1 1 1 1 1 1 0
8 8 9 9 10 10 10 10 10 9 10 10 9 9 9 10 10 9 8 7 2 3 3 2 2 2 2 2 2 2 2 2 2 2 2 1 1 1 1 1 1 1 1
7 8 8 9 9 9 9 10 10 9 10 8 9 8 9 9 9 9 9 8 5 1 3 2 2 2 2 2 2 3 2 2 2 2 2 2 2 2 1 1 1 1 1
7 8 8 9 9 9 9 10 10 9 9 9 9 9 9 9 9 9 8 8 7 6 3 3 2 3 3 3 3 3 3 3 3 2 2 2 2 2 2 2 2 1 1
7 8 9 9 9 9 9 9 9 9 10 10 9 9 9 10 9 8 9 9 8 8 8 3 3 3 3 3 3 3 3 3 3 3 3 2 2 2 2 2 2 2 2
7 8 8 8 9 9 9 9 9 9 9 10 8 8 9 10 9 10 9 8 9 8 8 7 7 6 3 3 3 3 3 3 3 3 3 3 2 2 2 2 2 2 2
7 8 8 8 8 9 9 9 9 10 10 9 9 9 10 10 10 10 10 10 9 8 9 8 8 8 5 2 3 3 3 3 3 3 3 3 2 2 2 2 2 2 2
7 7 8 8 8 9 9 9 9 10 10 9 10 10 11 10 10 10 10 9 10 9 8 8 9 8 8 6 6 3 4 4 4 4 3 3 3 3 3 2 2 2 2
6 7 7 8 8 9 9 9 9 9 10 9 9 9 11 11 11 10 10 10 10 10 9 9 9 9 9 8 5 4 4 4 4 4 3 3 3 3 3 3 2 2 2
6 6 7 7 8 8 9 9 8 9 9 10 9 9 9 9 11 11 10 10 10 10 10 10 8 9 9 9 6 5 4 4 4 4 4 4 3 3 3 3 3 3 3
6 6 6 7 7 8 8 8 8 9 9 9 9 9 10 10 11 11 11 10 10 10 10 10 9 9 9 9 8 6 3 4 4 4 4 4 4 3 3 3 3 3 3
6 6 6 7 7 7 8 8 8 8 8 9 9 9 9 10 10 11 12 11 11 10 9 10 9 9 9 9 7 5 3 4 4 4 4 4 4 4 4 3 3 3 3
7 6 7 7 7 7 7 8 8 8 8 8 8 8 8 9 9 10 11 11 11 10 9 9 9 8 8 9 8 5 3 3 4 4 4 4 4 4 4 4 3 3 3
5 5 6 6 6 7 7 8 7 7 8 8 8 8 8 7 8 8 9 10 11 11 10 9 9 9 8 8 8 4 7 3 3 3 3 4 4 5 5 5 4 4 4
5 5 6 6 6 7 7 8 7 8 8 8 8 8 8 7 7 7 8 9 10 12 11 10 9 9 8 8 7 6 8 5 3 3 3 4 4 5 5 5 5 4 4
6 5 6 5 6 7 7 7 7 7 8 7 7 8 8 7 7 7 7 8 9 9 11 10 9 9 8 7 7 7 8 5 4 3 3 3 4 5 5 6 5 5 5
5 5 5 5 5 6 7 7 7 7 8 7 7 7 7 7 7 7 7 8 8 9 9 8 9 9 9 9 8 7 8 8 8 3 3 4 4 5 6 6 6 6 6
4 4 5 5 5 5 6 7 7 6 7 7 7 7 7 7 7 7 7 7 7 8 8 8 9 9 9 9 9 9 8 7 8 6 4 4 4 4 5 6 6 6 7
4 4 4 5 5 5 5 6 6 6 6 7 7 7 7 7 7 7 7 7 7 7 8 8 8 9 9 10 10 9 9 9 8 6 4 4 4 4 5 6 6 6 6
4 4 4 4 5 5 5 5 6 7 7 7 7 7 7 7 7 7 7 7 7 7 8 8 8 10 10 10 10 10 10 10 9 9 7 7 7 6 5 7 7 7 6
6 5 4 4 4 4 5 5 5 6 7 7 7 7 7 6 5 5 6 7 7 8 8 8 8 10 10 11 10 11 9 10 11 10 11 11 11 11 12 9 9 6 7
8 7 6 5 5 4 4 4 5 6 6 7 7 7 7 5 5 4 4 4 6 7 8 8 8 8 8 8 11 9 10 12 12 11 12 13 12 13 13 14 10 8 7
8 8 8 7 6 5 3 3 4 5 6 6 7 7 7 7 6 6 4 4 4 4 4 7 8 8 8 8 8 12 11 12 11 13 13 14 14 14 14 13 9 8 8
9 9 8 7 7 6 4 3 3 4 5 6 6 7 7 7 7 6 6 6 5 5 5 5 7 6 7 7 8 8 9 11 13 14 13 15 16 16 15 14 10 9 8
9 9 8 7 7 7 5 4 4 5 5 5 5 6 7 7 6 5 6 7 7 6 5 4 5 5 5 6 7 11 13 12 15 16 14 14 16 16 16 16 14 9 8
10 9 8 8 7 7 5 4 5 6 6 6 6 5 5 6 5 4 6 6 7 7 7 6 6 5 5 6 6 8 10 11 15 16 15 14 17 17 18 17 16 15 13